Location: Newark
(46.1292°N, 1.0086°W)
Time: 18:49:22
(UTC+00:00)

Transit 4A - Pass Details

Date: 22 November 2019
Orbit: 870 x 975 km, 66.8° (Epoch: 14 December)

Event Time Altitude Azimuth Distance (km) Brightness Sun altitude
Exits shadow 05:46:30 10° 329° (NNW) 2,572 9.8 -14.9°
Reaches altitude 10° 05:46:31 10° 329° (NNW) 2,566 9.8 -14.9°
Maximum altitude 05:52:27 77° 55° (NE) 904 7.9 -13.9°
Drops below altitude 10° 05:58:15 10° 142° (SE) 2,512 11.0 -12.9°
Sets 06:00:43 0° 144° (SE) 3,445 11.8 -12.5°
